| time (UTC) | temp C | wind direction | speed KPH | gust KPH | rain 1hr cm | rain 24hr cm | rain mn cm | humidity % | barometer mb |
| 20260502210240 | 22 | 79 | 9.7 | 35.4 | 0.00 | 0.53 | 0.53 | 45 | 1019.7 |
| 20260502205738 | 22 | 53 | 16.1 | 29.0 | 0.00 | 0.53 | 0.53 | 45 | 1019.8 |
| 20260502205233 | 22 | 47 | 27.4 | 33.8 | 0.00 | 0.53 | 0.53 | 45 | 1019.7 |
| 20260502204731 | 22 | 50 | 19.3 | 29.0 | 0.00 | 0.53 | 0.53 | 46 | 1020.0 |
| 20260502204228 | 21 | 36 | 24.1 | 40.2 | 0.00 | 0.53 | 0.53 | 48 | 1020.0 |
| 20260502203726 | 22 | 40 | 24.1 | 37.0 | 0.00 | 0.53 | 0.53 | 45 | 1020.0 |
| 20260502203224 | 22 | 59 | 16.1 | 32.2 | 0.00 | 0.53 | 0.53 | 46 | 1019.9 |
| 20260502202717 | 22 | 37 | 14.5 | 30.6 | 0.00 | 0.53 | 0.53 | 45 | 1020.0 |
| 20260502202216 | 22 | 28 | 11.3 | 29.0 | 0.00 | 0.53 | 0.53 | 46 | 1019.8 |
| 20260502201713 | 21 | 42 | 14.5 | 33.8 | 0.00 | 0.53 | 0.53 | 48 | 1020.0 |
| 20260502201210 | 21 | 50 | 27.4 | 38.6 | 0.00 | 0.53 | 0.53 | 49 | 1020.0 |
| 20260502200705 | 21 | 41 | 14.5 | 29.0 | 0.00 | 0.53 | 0.53 | 48 | 1020.1 |
| 20260502200201 | 21 | 54 | 25.7 | 37.0 | 0.00 | 0.53 | 0.53 | 47 | 1020.1 |
| 20260502195700 | 21 | 45 | 25.7 | 46.7 | 0.00 | 0.53 | 0.53 | 49 | 1020.3 |
| 20260502195156 | 21 | 32 | 32.2 | 45.1 | 0.00 | 0.53 | 0.53 | 49 | 1020.2 |
| 20260502194653 | 21 | 43 | 20.9 | 35.4 | 0.00 | 0.53 | 0.53 | 48 | 1020.3 |
| 20260502194144 | 21 | 56 | 12.9 | 27.4 | 0.00 | 0.53 | 0.53 | 52 | 1020.2 |
| 20260502193635 | 21 | 39 | 29.0 | 32.2 | 0.00 | 0.53 | 0.53 | 50 | 1020.5 |
| 20260502193132 | 21 | 50 | 17.7 | 27.4 | 0.00 | 0.53 | 0.53 | 51 | 1020.5 |
| 20260502192627 | 21 | 70 | 19.3 | 35.4 | 0.00 | 0.53 | 0.53 | 49 | 1020.4 |
| 20260502192125 | 21 | 42 | 22.5 | 30.6 | 0.00 | 0.53 | 0.53 | 49 | 1020.2 |
| 20260502191621 | 21 | 63 | 25.7 | 43.5 | 0.00 | 0.53 | 0.53 | 50 | 1020.3 |
| 20260502191113 | 21 | 26 | 29.0 | 46.7 | 0.00 | 0.53 | 0.53 | 49 | 1020.2 |
| 20260502190611 | 21 | 51 | 25.7 | 32.2 | 0.00 | 0.53 | 0.53 | 52 | 1020.3 |
| 20260502190108 | 21 | 44 | 12.9 | 37.0 | 0.00 | 0.53 | 0.53 | 52 | 1020.2 |
| 20260502185602 | 21 | 59 | 24.1 | 43.5 | 0.00 | 0.53 | 0.53 | 53 | 1020.3 |
| 20260502185059 | 21 | 51 | 19.3 | 29.0 | 0.00 | 0.53 | 0.53 | 55 | 1020.4 |
| 20260502184555 | 21 | 34 | 27.4 | 37.0 | 0.00 | 0.53 | 0.53 | 54 | 1020.5 |
| 20260502184046 | 21 | 30 | 22.5 | 30.6 | 0.00 | 0.53 | 0.53 | 56 | 1020.4 |
| 20260502183543 | 21 | 72 | 25.7 | 38.6 | 0.00 | 0.53 | 0.53 | 55 | 1020.6 |
| 20260502183039 | 21 | 60 | 25.7 | 30.6 | 0.00 | 0.53 | 0.53 | 56 | 1020.6 |
| 20260502182534 | 21 | 42 | 29.0 | 40.2 | 0.00 | 0.53 | 0.53 | 56 | 1020.5 |
| 20260502182030 | 20 | 43 | 17.7 | 37.0 | 0.00 | 0.53 | 0.53 | 58 | 1020.7 |
| 20260502181528 | 20 | 50 | 14.5 | 40.2 | 0.00 | 0.53 | 0.53 | 57 | 1020.7 |
| 20260502181026 | 21 | 56 | 17.7 | 33.8 | 0.00 | 0.53 | 0.53 | 58 | 1020.5 |
| 20260502180522 | 20 | 59 | 25.7 | 37.0 | 0.00 | 0.53 | 0.53 | 59 | 1020.7 |
| 20260502170430 | 20 | 42 | 37.0 | 38.6 | 0.00 | 0.53 | 0.53 | 63 | 1021.2 |
| 20260502163914 | 19 | 64 | 16.1 | 29.0 | 0.00 | 0.53 | 0.53 | 67 | 1021.4 |
| 20260502163410 | 20 | 38 | 24.1 | 30.6 | 0.00 | 0.53 | 0.53 | 65 | 1021.5 |
| 20260502162908 | 19 | 42 | 22.5 | 32.2 | 0.00 | 0.53 | 0.53 | 67 | 1021.4 |
| 20260502162404 | 18 | 54 | 27.4 | 32.2 | 0.00 | 0.53 | 0.53 | 68 | 1021.3 |
| 20260502161901 | 18 | 69 | 12.9 | 35.4 | 0.00 | 0.53 | 0.53 | 69 | 1021.3 |
| 20260502161357 | 18 | 53 | 25.7 | 37.0 | 0.00 | 0.53 | 0.53 | 69 | 1021.4 |
| 20260502160855 | 18 | 55 | 20.9 | 32.2 | 0.00 | 0.53 | 0.53 | 71 | 1021.4 |
| 20260502160353 | 18 | 57 | 29.0 | 38.6 | 0.00 | 0.53 | 0.53 | 70 | 1021.4 |
| 20260502152334 | 17 | 71 | 16.1 | 30.6 | 0.00 | 0.53 | 0.53 | 75 | 1021.2 |
| 20260502151831 | 17 | 59 | 17.7 | 27.4 | 0.00 | 0.53 | 0.53 | 75 | 1021.0 |
| 20260502151328 | 17 | 52 | 20.9 | 27.4 | 0.00 | 0.53 | 0.53 | 75 | 1021.1 |
| 20260502150825 | 17 | 50 | 19.3 | 29.0 | 0.00 | 0.53 | 0.53 | 76 | 1021.2 |
| 20260502150321 | 17 | 55 | 17.7 | 22.5 | 0.00 | 0.53 | 0.53 | 77 | 1021.0 |
| 20260502130710 | 13 | 60 | 14.5 | 29.0 | 0.00 | 0.53 | 0.53 | 90 | 1019.8 |
| 20260502130203 | 13 | 55 | 20.9 | 24.1 | 0.00 | 0.53 | 0.53 | 90 | 1019.7 |
| 20260502123648 | 13 | 57 | 19.3 | 24.1 | 0.00 | 0.53 | 0.53 | 92 | 1019.0 |
| 20260502123145 | 12 | 53 | 17.7 | 24.1 | 0.00 | 0.53 | 0.53 | 92 | 1019.0 |
| 20260502122641 | 12 | 52 | 17.7 | 20.9 | 0.00 | 0.53 | 0.53 | 92 | 1019.2 |
| 20260502122138 | 12 | 78 | 16.1 | 22.5 | 0.00 | 0.53 | 0.53 | 93 | 1019.0 |
| 20260502121636 | 12 | 60 | 12.9 | 22.5 | 0.00 | 0.53 | 0.53 | 93 | 1019.1 |
| 20260502121133 | 12 | 58 | 17.7 | 17.7 | 0.00 | 0.53 | 0.53 | 94 | 1019.0 |
| 20260502120630 | 12 | 77 | 9.7 | 19.3 | 0.00 | 0.53 | 0.53 | 95 | 1018.9 |
| 20260502120127 | 12 | 68 | 14.5 | 17.7 | 0.00 | 0.53 | 0.53 | 95 | 1018.7 |
| 20260502115624 | 11 | 67 | 12.9 | 20.9 | 0.00 | 0.53 | 0.53 | 95 | 1018.4 |
| 20260502115120 | 11 | 68 | 14.5 | 16.1 | 0.00 | 0.53 | 0.53 | 95 | 1018.6 |
| 20260502114616 | 11 | 68 | 14.5 | 17.7 | 0.00 | 0.53 | 0.53 | 95 | 1018.4 |
| 20260502114114 | 11 | 56 | 17.7 | 20.9 | 0.00 | 0.53 | 0.53 | 95 | 1018.4 |
| 20260502113611 | 11 | 58 | 17.7 | 20.9 | 0.00 | 0.53 | 0.53 | 94 | 1018.2 |
| 20260502113110 | 11 | 67 | 11.3 | 19.3 | 0.00 | 0.53 | 0.53 | 94 | 1018.2 |
| 20260502112607 | 11 | 62 | 14.5 | 22.5 | 0.00 | 0.53 | 0.53 | 94 | 1018.4 |
| 20260502112104 | 11 | 67 | 14.5 | 20.9 | 0.00 | 0.53 | 0.53 | 94 | 1018.4 |
| 20260502111602 | 11 | 87 | 12.9 | 19.3 | 0.00 | 0.53 | 0.53 | 94 | 1018.3 |
| 20260502111059 | 11 | 74 | 16.1 | 22.5 | 0.00 | 0.53 | 0.53 | 93 | 1018.2 |
| 20260502110556 | 12 | 71 | 14.5 | 17.7 | 0.00 | 0.53 | 0.53 | 93 | 1018.0 |
| 20260502110054 | 12 | 76 | 11.3 | 20.9 | 0.00 | 0.53 | 0.53 | 93 | 1018.2 |
| 20260502105551 | 11 | 60 | 17.7 | 19.3 | 0.00 | 0.53 | 0.53 | 94 | 1017.9 |
| 20260502105048 | 11 | 36 | 19.3 | 22.5 | 0.00 | 0.53 | 0.53 | 94 | 1017.8 |
| 20260502104545 | 11 | 55 | 17.7 | 17.7 | 0.00 | 0.53 | 0.53 | 94 | 1018.0 |
| 20260502104043 | 12 | 65 | 12.9 | 20.9 | 0.00 | 0.53 | 0.53 | 94 | 1017.9 |
| 20260502103541 | 12 | 57 | 20.9 | 24.1 | 0.00 | 0.53 | 0.53 | 94 | 1018.0 |
| 20260502103038 | 12 | 62 | 24.1 | 25.7 | 0.00 | 0.53 | 0.53 | 94 | 1017.9 |
| 20260502102534 | 12 | 60 | 16.1 | 22.5 | 0.00 | 0.53 | 0.53 | 94 | 1017.9 |
| 20260502102032 | 12 | 61 | 14.5 | 27.4 | 0.00 | 0.53 | 0.53 | 93 | 1017.9 |
| 20260502101529 | 12 | 58 | 24.1 | 29.0 | 0.00 | 0.53 | 0.53 | 93 | 1017.9 |
| 20260502101027 | 12 | 56 | 17.7 | 29.0 | 0.00 | 0.53 | 0.53 | 94 | 1017.6 |
| 20260502100526 | 12 | 56 | 32.2 | 32.2 | 0.00 | 0.53 | 0.53 | 94 | 1017.8 |
| 20260502091500 | 11 | 54 | 24.1 | 27.4 | 0.00 | 0.53 | 0.53 | 99 | 1017.1 |
| 20260502090958 | 11 | 57 | 19.3 | 24.1 | 0.00 | 0.53 | 0.53 | 99 | 1017.0 |
| 20260502090454 | 11 | 54 | 19.3 | 29.0 | 0.00 | 0.53 | 0.53 | 99 | 1017.2 |
| 20260502071349 | 12 | 40 | 24.1 | 25.7 | 0.00 | 0.51 | 0.51 | 99 | 1016.6 |
| 20260502070847 | 12 | 43 | 20.9 | 27.4 | 0.00 | 0.51 | 0.51 | 99 | 1016.5 |
| 20260502070344 | 12 | 48 | 25.7 | 32.2 | 0.00 | 0.51 | 0.51 | 99 | 1016.5 |
| 20260502065844 | 12 | 64 | 14.5 | 25.7 | 0.00 | 0.51 | 0.51 | 99 | 1016.8 |
| 20260502065341 | 12 | 56 | 16.1 | 32.2 | 0.00 | 0.51 | 0.51 | 99 | 1017.1 |
| 20260502064839 | 12 | 65 | 12.9 | 19.3 | 0.05 | 0.51 | 0.51 | 99 | 1017.0 |
| 20260502064336 | 12 | 55 | 19.3 | 24.1 | 0.13 | 0.51 | 0.51 | 99 | 1017.3 |
| 20260502063833 | 12 | 59 | 20.9 | 22.5 | 0.13 | 0.48 | 0.48 | 99 | 1017.2 |
| 20260502063331 | 12 | 68 | 16.1 | 22.5 | 0.05 | 0.48 | 0.48 | 99 | 1017.0 |
| 20260502062828 | 12 | 78 | 14.5 | 20.9 | 0.13 | 0.46 | 0.46 | 99 | 1017.2 |
| 20260502062325 | 12 | 67 | 14.5 | 27.4 | 0.18 | 0.46 | 0.46 | 99 | 1017.2 |
| 20260502061824 | 12 | 64 | 20.9 | 27.4 | 0.30 | 0.46 | 0.46 | 99 | 1017.0 |
| 20260502061321 | 12 | 62 | 17.7 | 29.0 | 0.66 | 0.43 | 0.43 | 99 | 1017.4 |
| 20260502060817 | 12 | 38 | 20.9 | 22.5 | 0.53 | 0.38 | 0.38 | 99 | 1017.5 |
| 20260502060312 | 12 | 51 | 14.5 | 17.7 | 0.30 | 0.33 | 0.33 | 99 | 1017.6 |
| 20260502055810 | 12 | 78 | 11.3 | 14.5 | 0.36 | 0.28 | 0.28 | 99 | 1017.7 |
| 20260502055308 | 12 | 83 | 16.1 | 27.4 | 0.53 | 0.28 | 0.28 | 99 | 1017.0 |
| 20260502054807 | 12 | 68 | 17.7 | 29.0 | 0.61 | 0.23 | 0.23 | 99 | 1016.6 |
| 20260502054304 | 12 | 57 | 19.3 | 27.4 | 0.48 | 0.18 | 0.18 | 99 | 1016.6 |
| 20260502053801 | 12 | 70 | 17.7 | 22.5 | 0.30 | 0.10 | 0.10 | 99 | 1016.6 |
| 20260502053259 | 12 | 55 | 14.5 | 22.5 | 0.18 | 0.08 | 0.08 | 99 | 1016.5 |
| 20260502052756 | 12 | 75 | 22.5 | 29.0 | 0.13 | 0.05 | 0.05 | 99 | 1016.2 |
| 20260502052254 | 12 | 60 | 14.5 | 30.6 | 0.23 | 0.05 | 0.05 | 99 | 1016.4 |
| 20260502051752 | 12 | 69 | 16.1 | 35.4 | 0.23 | 0.05 | 0.05 | 99 | 1016.1 |
| 20260502051251 | 12 | 54 | 20.9 | 29.0 | 0.05 | 0.00 | 0.00 | 99 | 1016.4 |
| 20260502050746 | 12 | 55 | 19.3 | 24.1 | 0.05 | 0.00 | 0.00 | 99 | 1016.9 |
| 20260502050243 | 12 | 47 | 19.3 | 25.7 | 0.30 | 0.00 | 0.00 | 99 | 1016.7 |
| 20260502045740 | 12 | 46 | 20.9 | 25.7 | 0.48 | 6.99 | 6.99 | 99 | 1016.7 |
| 20260502045237 | 12 | 53 | 14.5 | 25.7 | 0.36 | 6.96 | 6.96 | 99 | 1017.3 |
| 20260502044733 | 12 | 60 | 14.5 | 25.7 | 0.05 | 6.91 | 6.91 | 99 | 1016.8 |
| 20260502044229 | 12 | 60 | 17.7 | 24.1 | 0.23 | 6.88 | 6.88 | 99 | 1017.0 |
| 20260502043727 | 13 | 38 | 20.9 | 29.0 | 0.43 | 6.88 | 6.88 | 99 | 1016.5 |
| 20260502043225 | 13 | 56 | 17.7 | 27.4 | 0.36 | 6.83 | 6.83 | 98 | 1016.6 |
| 20260502042724 | 13 | 66 | 16.1 | 29.0 | 0.30 | 6.81 | 6.81 | 98 | 1016.8 |
| 20260502042221 | 13 | 62 | 12.9 | 27.4 | 0.36 | 6.78 | 6.78 | 98 | 1017.1 |
| 20260502041719 | 13 | 52 | 19.3 | 30.6 | 0.30 | 6.76 | 6.76 | 98 | 1016.9 |
| 20260502041216 | 13 | 46 | 17.7 | 40.2 | 0.18 | 6.73 | 6.73 | 98 | 1016.8 |
| 20260502040713 | 13 | 58 | 27.4 | 32.2 | 0.05 | 6.71 | 6.71 | 98 | 1017.0 |
| 20260502040210 | 13 | 63 | 14.5 | 27.4 | 0.00 | 6.68 | 6.68 | 98 | 1016.7 |
| 20260502035706 | 13 | 50 | 22.5 | 29.0 | 0.00 | 6.68 | 6.68 | 98 | 1016.5 |
| 20260502035203 | 13 | 41 | 27.4 | 30.6 | 0.05 | 6.68 | 6.68 | 98 | 1016.3 |
| 20260502034701 | 13 | 39 | 19.3 | 29.0 | 0.05 | 6.68 | 6.68 | 98 | 1016.4 |
| 20260502034159 | 13 | 45 | 20.9 | 29.0 | 0.13 | 6.68 | 6.68 | 99 | 1016.4 |
| 20260502033656 | 13 | 55 | 19.3 | 33.8 | 0.05 | 6.68 | 6.68 | 99 | 1016.4 |
| 20260502033154 | 13 | 48 | 17.7 | 27.4 | 0.00 | 6.65 | 6.65 | 99 | 1016.2 |
| 20260502032650 | 13 | 68 | 16.1 | 29.0 | 0.00 | 6.65 | 6.65 | 99 | 1016.3 |
| 20260502032146 | 13 | 60 | 16.1 | 25.7 | 0.00 | 6.65 | 6.65 | 99 | 1016.2 |
| 20260502031644 | 13 | 76 | 16.1 | 27.4 | 0.00 | 6.65 | 6.65 | 99 | 1015.9 |
| 20260502031142 | 13 | 69 | 14.5 | 30.6 | 0.00 | 6.65 | 6.65 | 99 | 1015.6 |
| 20260502030641 | 13 | 45 | 19.3 | 25.7 | 0.00 | 6.65 | 6.65 | 99 | 1016.1 |
| 20260502030138 | 13 | 57 | 24.1 | 30.6 | 0.00 | 6.65 | 6.65 | 99 | 1016.1 |
| 20260502025635 | 13 | 54 | 20.9 | 27.4 | 0.00 | 6.65 | 6.65 | 99 | 1015.8 |
| 20260502025133 | 13 | 57 | 19.3 | 32.2 | 0.00 | 6.65 | 6.65 | 99 | 1016.0 |
| 20260502024631 | 13 | 59 | 17.7 | 35.4 | 0.00 | 6.65 | 6.65 | 99 | 1015.9 |
| 20260502024128 | 13 | 48 | 17.7 | 27.4 | 0.00 | 6.65 | 6.65 | 99 | 1015.5 |
| 20260502023626 | 13 | 64 | 20.9 | 27.4 | 0.00 | 6.65 | 6.65 | 99 | 1016.0 |
| 20260502023123 | 13 | 50 | 25.7 | 33.8 | 0.00 | 6.65 | 6.65 | 99 | 1015.7 |
| 20260502022620 | 13 | 61 | 17.7 | 37.0 | 0.00 | 6.65 | 6.65 | 99 | 1015.9 |
| 20260502022117 | 13 | 38 | 24.1 | 27.4 | 0.00 | 6.65 | 6.65 | 99 | 1015.7 |
| 20260502021614 | 13 | 58 | 22.5 | 30.6 | 0.00 | 6.65 | 6.65 | 99 | 1015.5 |
| 20260502021111 | 13 | 58 | 25.7 | 27.4 | 0.00 | 6.65 | 6.65 | 99 | 1015.3 |
| 20260502020609 | 13 | 59 | 17.7 | 24.1 | 0.00 | 6.65 | 6.65 | 99 | 1015.3 |
| 20260502020106 | 13 | 64 | 17.7 | 32.2 | 0.00 | 6.65 | 6.65 | 99 | 1015.4 |
| 20260502015603 | 13 | 64 | 17.7 | 25.7 | 0.00 | 6.65 | 6.65 | 99 | 1015.3 |
| 20260502015059 | 13 | 66 | 16.1 | 27.4 | 0.00 | 6.65 | 6.65 | 99 | 1015.4 |
| 20260502014556 | 13 | 58 | 20.9 | 27.4 | 0.00 | 6.65 | 6.65 | 99 | 1015.3 |
| 20260502014054 | 13 | 53 | 24.1 | 29.0 | 0.00 | 6.65 | 6.65 | 99 | 1015.0 |
| 20260502013549 | 13 | 54 | 19.3 | 22.5 | 0.00 | 6.65 | 6.65 | 99 | 1014.8 |
| 20260502013045 | 13 | 55 | 17.7 | 27.4 | 0.00 | 6.65 | 6.65 | 99 | 1014.8 |
| 20260502012543 | 13 | 71 | 16.1 | 27.4 | 0.00 | 6.65 | 6.65 | 99 | 1014.2 |
| 20260502012040 | 13 | 46 | 16.1 | 25.7 | 0.00 | 6.65 | 6.65 | 99 | 1014.0 |
| 20260502011537 | 13 | 67 | 20.9 | 29.0 | 0.00 | 6.65 | 6.65 | 99 | 1013.8 |
| 20260502011033 | 13 | 61 | 19.3 | 25.7 | 0.00 | 6.65 | 6.65 | 99 | 1013.5 |
| 20260502010531 | 13 | 68 | 25.7 | 30.6 | 0.00 | 6.65 | 6.65 | 99 | 1013.3 |
| 20260502010027 | 13 | 80 | 19.3 | 35.4 | 0.00 | 6.65 | 6.65 | 99 | 1013.4 |
| 20260502005525 | 13 | 72 | 16.1 | 25.7 | 0.00 | 6.65 | 6.65 | 99 | 1013.3 |
| 20260502005023 | 13 | 65 | 22.5 | 33.8 | 0.00 | 6.65 | 6.65 | 99 | 1012.9 |
| 20260502004518 | 13 | 47 | 22.5 | 29.0 | 0.00 | 6.65 | 6.65 | 99 | 1012.9 |
| 20260502004015 | 13 | 61 | 24.1 | 33.8 | 0.00 | 6.65 | 6.65 | 99 | 1011.9 |
| 20260502003513 | 13 | 66 | 24.1 | 29.0 | 0.00 | 6.65 | 6.65 | 99 | 1011.4 |
| 20260502003009 | 13 | 58 | 19.3 | 30.6 | 0.00 | 6.65 | 6.65 | 99 | 1011.6 |
| 20260502002506 | 13 | 65 | 20.9 | 33.8 | 0.00 | 6.65 | 6.65 | 99 | 1011.6 |
| 20260502002003 | 13 | 63 | 20.9 | 30.6 | 0.05 | 6.65 | 6.65 | 99 | 1011.8 |
| 20260502001501 | 13 | 55 | 32.2 | 33.8 | 0.30 | 6.65 | 6.65 | 99 | 1012.2 |
| 20260502000958 | 13 | 63 | 19.3 | 25.7 | 0.48 | 6.63 | 6.63 | 99 | 1012.3 |
| 20260502000457 | 13 | 55 | 24.1 | 33.8 | 0.36 | 6.63 | 6.63 | 99 | 1012.7 |
| 20260501235952 | 13 | 77 | 22.5 | 30.6 | 0.00 | 6.55 | 6.55 | 99 | 1014.0 |
| 20260501235448 | 13 | 68 | 19.3 | 27.4 | 0.23 | 6.55 | 6.55 | 99 | 1013.9 |
| 20260501234943 | 13 | 78 | 14.5 | 27.4 | 0.13 | 6.55 | 6.55 | 99 | 1014.4 |
| 20260501234440 | 13 | 78 | 14.5 | 27.4 | 0.05 | 6.53 | 6.53 | 99 | 1014.4 |
| 20260501233940 | 13 | 62 | 14.5 | 25.7 | 0.36 | 6.53 | 6.53 | 99 | 1014.0 |
| 20260501233437 | 13 | 63 | 25.7 | 33.8 | 0.61 | 6.50 | 6.50 | 99 | 1014.4 |
| 20260501232932 | 13 | 64 | 17.7 | 27.4 | 0.66 | 6.45 | 6.45 | 99 | 1014.5 |
| 20260501232429 | 13 | 69 | 19.3 | 24.1 | 0.43 | 6.40 | 6.40 | 99 | 1014.7 |
| 20260501231926 | 13 | 65 | 17.7 | 20.9 | 0.53 | 6.35 | 6.35 | 99 | 1014.4 |
| 20260501231425 | 13 | 67 | 22.5 | 27.4 | 2.11 | 6.32 | 6.32 | 99 | 1014.8 |
| 20260501230922 | 13 | 63 | 24.1 | 24.1 | 1.32 | 6.20 | 6.20 | 99 | 1015.3 |
| 20260501230421 | 14 | 76 | 20.9 | 27.4 | 0.13 | 5.97 | 5.97 | 99 | 1015.1 |
| 20260501225918 | 13 | 66 | 20.9 | 37.0 | 0.13 | 5.97 | 5.97 | 99 | 1014.3 |
| 20260501225416 | 14 | 70 | 16.1 | 25.7 | 0.18 | 5.97 | 5.97 | 99 | 1013.5 |
| 20260501224911 | 14 | 65 | 27.4 | 40.2 | 0.23 | 5.94 | 5.94 | 99 | 1013.5 |
| 20260501224409 | 14 | 70 | 19.3 | 30.6 | 0.36 | 5.92 | 5.92 | 99 | 1013.8 |
| 20260501223906 | 14 | 62 | 22.5 | 30.6 | 0.23 | 5.89 | 5.89 | 99 | 1014.0 |
| 20260501223402 | 14 | 72 | 22.5 | 35.4 | 0.05 | 5.87 | 5.87 | 99 | 1014.0 |
| 20260501222857 | 14 | 58 | 22.5 | 27.4 | 0.05 | 5.87 | 5.87 | 99 | 1014.6 |
| 20260501222355 | 14 | 50 | 22.5 | 27.4 | 0.00 | 5.84 | 5.84 | 99 | 1014.7 |
| 20260501221851 | 14 | 46 | 29.0 | 32.2 | 0.00 | 5.84 | 5.84 | 99 | 1014.2 |
| 20260501221349 | 14 | 46 | 30.6 | 35.4 | 0.00 | 5.84 | 5.84 | 99 | 1014.0 |
| 20260501220847 | 14 | 73 | 16.1 | 32.2 | 0.00 | 5.84 | 5.84 | 99 | 1013.5 |
| 20260501220344 | 14 | 61 | 20.9 | 30.6 | 0.13 | 5.84 | 5.84 | 99 | 1013.4 |
| 20260501215840 | 14 | 61 | 14.5 | 32.2 | 0.53 | 5.84 | 5.84 | 99 | 1013.6 |
| 20260501215337 | 14 | 62 | 27.4 | 29.0 | 0.66 | 5.82 | 5.82 | 99 | 1013.2 |
| 20260501214833 | 14 | 61 | 22.5 | 29.0 | 0.48 | 5.77 | 5.77 | 99 | 1013.6 |
| 20260501214328 | 14 | 54 | 20.9 | 32.2 | 0.36 | 5.71 | 5.71 | 99 | 1013.7 |
| 20260501213825 | 14 | 55 | 19.3 | 25.7 | 0.61 | 5.69 | 5.69 | 99 | 1013.6 |
| 20260501213321 | 14 | 46 | 16.1 | 27.4 | 0.36 | 5.64 | 5.64 | 99 | 1013.9 |
| 20260501212817 | 14 | 74 | 19.3 | 27.4 | 0.13 | 5.59 | 5.59 | 99 | 1013.8 |
| 20260501212314 | 15 | 83 | 14.5 | 24.1 | 0.18 | 5.56 | 5.56 | 99 | 1013.7 |
| 20260501211811 | 15 | 71 | 16.1 | 19.3 | 0.18 | 5.56 | 5.56 | 99 | 1014.0 |
| 20260501211308 | 15 | 67 | 24.1 | 32.2 | 0.18 | 5.54 | 5.54 | 99 | 1013.7 |
| 20260501210805 | 15 | 80 | 16.1 | 22.5 | 0.23 | 5.54 | 5.54 | 99 | 1013.4 |